This is the latest recevied weather packets stored in our database for station/object WX5HOT. If no packets are shown the sender has not sent any weather packets the latest 1 day(s).
| Time | Temp. | Humidity | Pressure | Rain* | Wind** | Luminosity | Snow |
|---|---|---|---|---|---|---|---|
| 1778046644 | 17.22° C | 96% | 1058.7 hPa | 0 mm | 2.24 m/s, 331° | 0 W/m² | - |
| 1778046341 | 17.78° C | 97% | 1058.7 hPa | 0 mm | 1.34 m/s, 342° | 0 W/m² | - |
| 1778046037 | 18.33° C | 97% | 1058.7 hPa | 0 mm | 1.34 m/s, 4° | 0 W/m² | - |
| 1778045736 | 18.33° C | 97% | 1058.9 hPa | 0 mm | 1.79 m/s, 303° | 0 W/m² | - |
| 1778045433 | 18.89° C | 97% | 1059 hPa | 0 mm | 0.45 m/s, 298° | 0 W/m² | - |
| 1778045132 | 19.44° C | 96% | 1058.8 hPa | 0 mm | 0.89 m/s, 318° | 0 W/m² | - |
| 1778044829 | 20.56° C | 94% | 1058.6 hPa | 0 mm | 1.34 m/s, 292° | 0 W/m² | - |
| 1778044526 | 21.11° C | 94% | 1058.4 hPa | 0 mm | 0.89 m/s, 277° | 0 W/m² | - |
| 1778044223 | 21.11° C | 94% | 1058.6 hPa | 0 mm | 0.45 m/s, 202° | 0 W/m² | - |
| 1778043921 | 21.11° C | 93% | 1058.9 hPa | 0 mm | 0.89 m/s, 213° | 0 W/m² | - |
| 1778043618 | 21.11° C | 93% | 1058.8 hPa | 0 mm | 0.45 m/s, 202° | 0 W/m² | - |
| 1778043314 | 21.11° C | 93% | 1058.6 hPa | 0 mm | 0.45 m/s, 194° | 0 W/m² | - |
| 1778043011 | 21.11° C | 93% | 1058.7 hPa | 0 mm | 0.89 m/s, 216° | 0 W/m² | - |
| 1778042709 | 21.11° C | 93% | 1058.6 hPa | 0 mm | 0.89 m/s, 195° | 0 W/m² | - |
| 1778042406 | 21.11° C | 93% | 1058.8 hPa | 0 mm | 0.89 m/s, 184° | 0 W/m² | - |
| 1778042102 | 21.11° C | 94% | 1058.6 hPa | 0 mm | 0.89 m/s, 188° | 0 W/m² | - |
| 1778041800 | 21.11° C | 94% | 1058.6 hPa | 0 mm | 1.34 m/s, 215° | 0 W/m² | - |
| 1778041500 | 21.11° C | 94% | 1058.4 hPa | 0 mm | 0.89 m/s, 184° | 0 W/m² | - |
| 1778041197 | 21.11° C | 94% | 1058.3 hPa | 0 mm | 0.89 m/s, 195° | 0 W/m² | - |
| 1778040895 | 21.11° C | 94% | 1058.3 hPa | 0 mm | 0.89 m/s, 167° | 0 W/m² | - |
| 1778040592 | 21.11° C | 94% | 1058 hPa | 0 mm | 0.89 m/s, 188° | 0 W/m² | - |
| 1778040290 | 21.67° C | 93% | 1058 hPa | 0 mm | 1.79 m/s, 185° | 0 W/m² | - |
| 1778039986 | 21.11° C | 93% | 1058.3 hPa | 0 mm | 1.79 m/s, 183° | 0 W/m² | - |
| 1778039683 | 21.11° C | 94% | 1057.9 hPa | 0 mm | 1.79 m/s, 188° | 0 W/m² | - |
| 1778039379 | 21.11° C | 94% | 1058 hPa | 0 mm | 1.34 m/s, 191° | 0 W/m² | - |
* Rain latest hour (hover to see other rain measurements)
** Current wind speed in m/s (hover to see current wind gust speed)